Regional Weather Roundup
Issued by NWS Sterling, VA

Home | Current Version | Previous Version | Text Only | Print | Product List | Glossary On
Versions: 1 2 3 4 5 6 7 8 9 10 11 12 13 14 15 16 17 18 19 20 21 22 23 24 25 26 27 28 29 30 31 32 33 34 35 36 37 38 39 40 41 42 43 44 45 46 47 48 49
000
ASUS41 KLWX 012210
RWRLWX

REGIONAL WEATHER ROUNDUP
NATIONAL WEATHER SERVICE BALTIMORE MD/WASHINGTON DC
500 PM EST SUN MAR 01 2015

Note: "FAIR" indicates few or no clouds below 12,000 feet
with no significant weather and/or obstructions to visibility.
 TC=TEMPERATURE CELSIUS

 * =Non NWS site. Station does not report precipitation (e.g. rain,
    snow, etc.), thunder, or fog.

DCZ001-MDZ009-015-VAZ040>042-051-053>054-012300-
WASHINGTON METRO

CITY           SKY/WX    TMP DP  RH WIND       PRES   REMARKS
WASHINGTON NAT LGT RAIN  33  28  81 S8        30.38F WCI  26
DULLES         FRZ RAIN  30  28  92 SW5       30.36F FOG
ANDREWS AFB    FRZ RAIN  32  30  93 CALM      30.35F
FT BELVOIR     MIX PCPN  32  28  86 CALM      30.38S
QUANTICO       CLOUDY    31  28  89 S8        30.40F WCI  23
COLLEGE PARK*  CLOUDY    32  32 100 CALM      30.36F
LEESBURG*      MIX PCPN  32  32 100 S6        30.35F
MANASSAS*      CLOUDY    30  30 100 S5        30.37F
GAITHERSBURG*  CLOUDY    30  27  86 CALM      30.38R

$$

MDZ006>007-011-014-012300-
BALTIMORE METRO

CITY           SKY/WX    TMP DP  RH WIND       PRES   REMARKS
BWI AIRPORT    FRZ RAIN  31  29  92 S5        30.34F FOG
MD SCIENCE CTR   N/A      1  32 100 MISG      30.35F
ANNAPOLIS      FRZ RAIN  29  26  89 MISG      30.36F FOG
FORT MEADE*    CLOUDY    32  30  93 S3        30.37F

$$

MDZ012-015-019>023-012300-
MARYLAND EASTERN SHORE

CITY           SKY/WX    TMP DP  RH WIND       PRES   REMARKS
OCEAN CITY     MIX PCPN  32  31  96 CALM      30.39F FOG
SALISBURY      LGT RAIN  34  30  85 NW3       30.39F FOG
BAY BRIDGE AP* MIX PCPN  30  30 100 SE5       30.37F
CAMBRIDGE*     CLOUDY    32  30  93 SE7       30.39F
EASTON*        CLOUDY    32  32 100 SE5       30.40F FOG

$$

MDZ017>025-012300-
SOUTHERN MARYLAND

CITY           SKY/WX    TMP DP  RH WIND       PRES   REMARKS
PATUXENT RIVER FRZ RAIN  28  25  88 SE13      30.36F FOG     WCI  17
ST INIGOES     FRZ RAIN  29  25  85 SE5       30.38F FOG
LEONARDTOWN*   CLOUDY    32  30  93 CALM      30.37F

$$

MDZ003>005-012300-
NORTH CENTRAL MARYLAND

CITY           SKY/WX    TMP DP  RH WIND       PRES   REMARKS
FREDERICK*     FRZ RAIN  32  27  80 CALM      30.38F
HAGERSTOWN APT FRZ RAIN  30  27  88 S6        30.29F FOG
WESTMINSTER*   MIX PCPN  30  28  93 S3        30.30F

$$

MDZ501>502-012300-
WESTERN MARYLAND

CITY           SKY/WX    TMP DP  RH WIND       PRES   REMARKS
OAKLAND*       CLOUDY    34 N/A N/A SW10G18   30.17F WCI  26
CUMBERLAND*    CLOUDY    32  28  86 CALM      30.31F

$$

VAZ025>031-012300-
SHENANDOAH VALLEY

CITY           SKY/WX    TMP DP  RH WIND       PRES   REMARKS
WINCHESTER*    MIX PCPN  32  28  86 SE5       30.29F
FRONT ROYAL*   CLOUDY    32  30  93 NE3       30.28F
LURAY*         CLOUDY    39  34  81 CALM      30.26F
NEW MARKET*    CLOUDY    37  29  72 SW8       30.27F
STAUNTON*      CLOUDY    37  30  75 S6        30.30F
WAYNESBORO*    CLOUDY    35  30  80 CALM      30.28F

$$

WVZ021-048>050-054>055-012300-
EASTERN WEST VIRGINIA PANHANDLE

CITY           SKY/WX    TMP DP  RH WIND       PRES   REMARKS
MARTINSBURG    MIX PCPN  32  28  85 SE5       30.30F FOG
PETERSBURG*    NOT AVBL

$$

VAZ036>039-050-012300-
CENTRAL FOOTHILLS

CITY           SKY/WX    TMP DP  RH WIND       PRES   REMARKS
CHARLOTTESVILL CLOUDY    30  27  88 SW3       30.33F
CULPEPER*      MIX PCPN  30  30 100 S3        30.35F
ORANGE*        CLOUDY    32  32 100 CALM      30.36S
GORDONSVILLE*  CLOUDY    31  29  92 SW5       30.33F
WARRENTON*     DRIZZLE   32  32 100 CALM      30.35F

$$

VAZ055>057-012300-
NORTH AND CENTRAL PIEDMONT

CITY           SKY/WX    TMP DP  RH WIND       PRES   REMARKS
FREDERICKSBRG* CLOUDY    33  33 100 CALM      30.37F
STAFFORD*      CLOUDY    31  32 100 CALM      30.41F

$$

NCZ024-NYZ072-PAZ021-071-VAZ022-071-012300-
OTHER REGIONAL OBSERVATIONS

CITY           SKY/WX    TMP DP  RH WIND       PRES   REMARKS
NEW YORK CITY  SNOW      27  22  81 CALM      30.39F VSB 1/2
PHILADELPHIA   FRZ RAIN  30  26  85 S7        30.38F FOG
PITTSBURGH     LGT SNOW  34  33  96 SW5       30.20F FOG
ROANOKE        CLOUDY    36  26  67 CALM      30.34F
RICHMOND       FRZ RAIN  32  30  93 S6        30.37F FOG
RALEIGH        LGT RAIN  36  30  80 CALM      30.38F

$$

ANZ530>537-012300-
MARINE OBSERVATIONS

STATION/POSITION TIME  TEMP    WIND        PRES
                       AIR SEA DIR/SP/G
                 (UTC) (F)     (DEG/KT/KT) (MB)
THOMAS PT LIGHT  2200   28 31     CALM     1029.3F
BALT KEY BRIDGE  2100   29     120/  4/  5 1029.1F
COVE POINT       2100   26        CALM     1030.2F
LEWISETTA        2100   28 33              1030.3F
SOLOMONS ISLAND  2100      32                N/A

$$



USA.gov is the U.S. government's official web portal to all federal, state and local government web resources and services.